Flag for Sweden Weather past 2 weeks in Norrköping, Sweden

Now
43 °F

Scattered clouds.


Feels Like: 35 °F
Forecast: 29 / 38 °F
Wind: 17 mph from West

Location: Norrkoping Airport

Current Time: Dec 19, 2014 at 1:19:55 PM

Latest Report: Dec 19, 2014 at 12:50 PM


Visibility: N/A

Pressure: 29.18 "Hg

Humidity: 76%

Dew point: 36 °F

Location of NorrköpingLocation

Historic Weather in Norrköping — Graph

°F

Norrköping temperature yesterday

Maximum temperature yesterday: 41 °F (at 1:20 PM)
Minimum temperature yesterday: 34 °F (at 6:50 AM)
Average temperature yesterday: 39 °F

Past Weeks' High & Low Weather Summary

 TemperatureHumidityPressure
High45 °F (Dec 19, 4:20 AM)100% (Dec 4, 12:20 PM)30.24 "Hg (Dec 4, 12:20 PM)
Low25 °F (Dec 17, 7:20 PM)70% (Dec 10, 6:20 AM)28.77 "Hg (Dec 12, 11:20 PM)
Average36 °F91%29.58 "Hg
* Reported Dec 4 12:20 PM — Dec 19 12:20 PM, Norrköping, Weather by CustomWeather, © 2014

Note: Actual official high and low records may vary slightly from our data, if they occured in-between our weather recording intervals... More about our weather records

Advertising

Norrköping weather history for previous 24 hours

 ConditionsComfort  
Time TempWeatherWind HumidityBarometerVisibility
12:20 PM
Dec 19
43 °FPartly sunny.20 mph81%29.18 "HgN/A
11:50 AM43 °FPartly sunny.22 mph81%29.18 "HgN/A
11:20 AM43 °FPassing clouds.20 mph81%29.18 "HgN/A
10:50 AM43 °FPartly sunny.18 mph81%29.18 "HgN/A
10:20 AM43 °FPartly sunny.20 mph81%29.15 "HgN/A
9:50 AM41 °FPartly sunny.15 mph87%29.18 "HgN/A
9:20 AM41 °FScattered clouds.17 mph87%29.15 "HgN/A
8:50 AM41 °FPartly sunny.16 mph87%29.15 "HgN/A
8:20 AM43 °FPassing clouds.17 mph87%29.15 "HgN/A
7:20 AM43 °FPassing clouds.15 mph87%29.15 "HgN/A
6:50 AM45 °FPartly cloudy.17 mph87%29.15 "HgN/A
6:20 AM45 °FPartly cloudy.16 mph87%29.12 "HgN/A
5:50 AM45 °FOvercast.14 mph93%29.12 "HgN/A
5:20 AM45 °FOvercast.14 mph93%29.12 "HgN/A
4:20 AM45 °FDrizzle. Mostly cloudy.6 mph93%29.12 "Hg6 mi
3:50 AM43 °FDrizzle. Mostly cloudy.7 mph100%29.12 "Hg5 mi
3:20 AM43 °FDrizzle. Overcast.7 mph100%29.12 "Hg2 mi
2:50 AM43 °FLight rain. Mostly cloudy.3 mph100%29.12 "Hg4 mi
2:20 AM41 °FDrizzle. Mostly cloudy.3 mph100%29.12 "Hg4 mi
1:50 AM41 °FLight rain. Low clouds.2 mph100%29.15 "Hg3 mi
1:20 AM41 °FFog.1 mph100%29.15 "Hg4 mi
12:50 AM43 °FFog.5 mph100%29.15 "Hg3 mi
12:20 AM41 °FPartly cloudy.5 mph100%29.18 "HgN/A
11:50 PM
Dec 18
41 °FOvercast.7 mph100%29.18 "HgN/A
11:20 PM41 °FDrizzle. Overcast.7 mph100%29.21 "HgN/A
10:50 PM41 °FDrizzle. Mostly cloudy.5 mph100%29.21 "Hg6 mi
10:20 PM41 °FDrizzle. Overcast.3 mph100%29.21 "Hg6 mi
9:50 PM41 °FLight rain. Passing clouds.6 mph100%29.24 "HgN/A
9:20 PM41 °FPassing clouds.6 mph100%29.24 "HgN/A
8:50 PM39 °FLight rain. Fog.5 mph100%29.24 "Hg6 mi
8:20 PM41 °FLight rain. Partly cloudy.No wind93%29.27 "HgN/A
7:50 PM39 °FLight rain. Passing clouds.7 mph100%29.27 "HgN/A
7:20 PM39 °FLight rain. Passing clouds.9 mph100%29.27 "HgN/A
6:50 PM41 °FLight rain. Passing clouds.8 mph93%29.30 "HgN/A
6:20 PM39 °FLight rain. Partly cloudy.8 mph100%29.30 "HgN/A
5:50 PM41 °FLight rain. Passing clouds.7 mph93%29.30 "Hg6 mi
5:20 PM41 °FLight rain. Passing clouds.6 mph93%29.33 "HgN/A
4:50 PM39 °FPassing clouds.5 mph100%29.33 "HgN/A
4:20 PM39 °FClear.5 mph93%29.33 "Hg10 mi
3:50 PM39 °FClear.6 mph93%29.33 "Hg10 mi
3:20 PM41 °FClear.8 mph87%29.36 "Hg10 mi
2:50 PM41 °FPartly sunny.10 mph87%29.36 "HgN/A
2:20 PM41 °FPartly sunny.12 mph87%29.36 "HgN/A
1:50 PM41 °FPartly sunny.10 mph87%29.36 "HgN/A
1:20 PM41 °FBroken clouds.13 mph87%29.36 "HgN/A
Weather by CustomWeather, © 2014

See weather overviewHow to use our weather pages